Location: Diati
(11.8376°N, 2.5966°E)
Time: 18:20:03
(UTC+00:00)

Cosmos 1437 - Pass Details

Date: 21 September 2020
Orbit: 366 x 369 km, 81.2° (Epoch: 19 October)

Event Time Altitude Azimuth Distance (km) Brightness Sun altitude
Rises 18:25:02 0° 8° (N) 2,221 6.4 -10.4°
Reaches altitude 10° 18:27:09 10° 19° (NNE) 1,371 5.2 -10.9°
Maximum altitude 18:29:49 30° 83° (E) 697 3.3 -11.5°
Drops below altitude 10° 18:32:29 10° 147° (SSE) 1,368 5.0 -12.2°
Enters shadow 18:33:18 - 153° (SSE) 1,694 5.5 -12.4°
